Location: G�ndlingen
(48.0142°N, 7.6396°E)
Time: 19:12:26
(UTC+00:00)

CARTOSAT-1 - Pass Details

Date: 05 July 2020
Orbit: 617 x 618 km, 97.8° (Epoch: 11 August)

Event Time Altitude Azimuth Distance (km) Brightness Sun altitude
Exits shadow 20:32:59 11° 145° (SE) 1,929 5.4 -8.5°
Maximum altitude 20:37:00 50° 71° (ENE) 795 4.0 -8.9°
Drops below altitude 10° 20:41:12 10° 356° (N) 1,994 7.1 -9.4°
Sets 20:43:26 0° 352° (N) 2,905 8.1 -9.6°
